{"data":{"norad_id":66673,"epoch":"2026-05-24T15:22:08.749920Z","epoch_age_seconds":116594,"freshness":"FRESH","line1":"1 66673U 25276H   26144.64037905  .00014598  00000+0  63674-3 0  9996","line2":"2 66673  97.4164 218.7610 0007750 100.5124 259.6986 15.22236975 26867","mean_motion":15.22236975,"eccentricity":0.000775,"inclination_deg":97.4164,"raan_deg":218.761,"arg_perigee_deg":100.5124,"mean_anomaly_deg":259.6986,"bstar":0.00063674,"rev_number":2686,"period_min":94.597623343107,"perigee_km":493.76495881009,"apogee_km":504.42466812096,"semimajor_km":6877.2318134655,"source":"CELESTRAK","updated_at":"2026-05-25T13:38:06.385859Z"}}